Vertical_Velocity
-2 -1 -1 -1 -3 -2 -5 3 -2 -9 -11 7 5 1 1 -0 -2 -0 -1 -1 -2 -3 -2 -2 -2 2 2 -2 -0 0 0 1 2 4 7 6 5 6 6 7 4 4 3 0
-8 5 1 -1 0 3 -0 1 -6 2 -25 6 1 2 3 3 1 -1 -2 -3 -3 -2 -1 1 -1 -1 -1 1 2 2 1 2 3 5 4 5 5 5 4 5 4 5 3 4
-3 -4 -2 -7 -1 3 3 1 6 -5 10 3 2 3 1 -1 1 1 0 1 -1 -2 -3 -3 -4 -2 -1 -1 -2 -1 0 1 3 5 7 6 9 9 8 9 8 6 2 -7
-2 -1 -6 1 -1 -2 -4 -4 -1 2 1 1 1 2 4 -0 1 -1 -2 -1 1 0 -1 -2 -1 -0 -1 -1 1 0 1 2 3 4 8 9 7 6 8 3 -1 3 -6 -6
-0 -1 -12 3 -0 -2 1 -6 -1 1 3 -1 -1 -1 6 1 3 1 -3 -4 -1 -0 -0 -0 -1 -1 -0 -0 1 1 1 1 3 6 6 17 12 3 -1 -6 -9 2 1 -4
1 0 -3 5 0 -4 1 -4 1 1 1 1 1 -3 6 1 -1 -3 -4 -6 -7 -2 -0 1 1 -1 0 -1 -2 2 2 3 3 9 6 2 -1 -6 -4 -5 -3 1 -0 0
3 0 -12 -5 2 3 6 -10 -0 4 4 2 -1 -4 -6 -7 -3 -6 -3 -2 -3 -3 -1 1 0 -1 -1 -1 0 4 5 4 3 5 -1 -1 -5 -3 -2 1 2 -2 1 -1
5 2 -12 -1 4 3 1 2 4 5 2 -0 2 1 -2 -3 -5 -4 -4 -2 -2 -4 -2 -0 1 -0 1 3 5 4 3 3 1 -3 -4 -1 1 1 2 1 -0 -1 -1 -1
-1 3 8 -6 0 -1 0 2 2 2 2 -3 -5 -3 -1 -2 -1 -4 -4 -2 -1 -1 -1 -0 2 0 3 7 7 9 5 -1 -2 1 3 0 0 1 2 0 0 -1 -0 -2
14 -1 8 7 4 2 3 3 4 3 0 -2 -6 -1 -5 -4 -2 -6 -1 -1 -1 -1 -0 -2 1 6 11 6 3 -0 0 1 1 -0 1 1 1 1 2 2 -0 -1 -0 -0
-0 6 4 -0 -3 1 3 3 2 2 -5 -3 -5 3 -6 -3 0 -2 -2 0 -0 -0 0 6 14 11 7 2 2 1 -1 5 3 0 0 0 2 -0 -2 1 2 2 0 -1
-10 -3 2 8 -4 4 1 1 -4 -1 3 6 -0 -2 -2 -2 -2 -2 0 2 2 2 3 11 18 12 6 7 4 3 4 2 -0 0 1 1 2 1 0 1 -1 -1 -1 1
-3 -1 -4 2 -3 -2 -4 -1 -1 -1 -3 -3 -2 -2 -3 -4 -1 -2 -2 -3 -1 2 6 14 16 10 7 3 -2 1 1 1 2 4 5 3 1 1 1 -1 1 1 -0 -2
2 2 -2 2 -1 1 2 1 -1 -2 -2 -1 0 1 2 -4 -1 -2 -2 1 -2 5 12 7 6 5 2 1 1 0 0 2 4 4 1 2 -0 -1 1 2 0 -1 -1 1
0 2 2 2 2 0 2 0 -0 1 2 -1 -2 0 -1 -2 -5 -5 -3 -2 -1 1 4 7 8 7 6 4 2 2 3 2 3 3 4 3 -1 -0 1 -0 2 3 1 1
0 0 0 -1 1 3 2 0 0 -2 -3 -4 -3 -3 -0 -1 -1 1 -1 -1 -0 -0 1 2 4 5 5 4 1 -1 -1 -2 -3 -0 1 3 3 3 3 2 -0 1 1 1
-0 -2 -1 -1 -3 -4 0 -2 -1 -2 -1 1 -1 0 0 1 -0 -2 -1 2 2 -0 1 3 3 -0 -1 -0 2 3 4 5 4 -0 5 4 2 3 4 2 1 1 2 5
3 2 0 -1 -3 -3 -0 -1 -1 -2 -3 -1 1 -1 1 -0 0 1 -1 -1 2 1 1 1 -1 0 3 4 3 2 2 2 3 2 2 2 5 3 1 2 2 3 2 4
1 -0 -1 -3 -2 0 1 0 -3 -1 -2 -3 -2 -1 -1 -4 -1 -1 -2 -0 4 1 -2 1 -4 2 2 5 2 1 1 2 3 3 3 3 0 0 3 3 1 2 2 2
-4 -3 -1 0 1 0 -1 -2 -1 -1 -1 -0 -1 2 0 -2 -1 -0 1 1 3 -2 -1 -2 3 0 2 2 2 -2 -1 0 1 2 2 1 2 1 1 0 -1 1 1 -0
-1 -2 -2 -1 -0 -1 0 1 -0 -2 -2 -0 -2 1 -1 -2 -2 -1 -1 1 1 -1 -2 1 1 3 1 -0 1 0 1 1 1 1 2 1 1 -0 1 2 2 -1 -0 -1
1 -0 -1 -0 1 1 -2 -0 2 -1 -2 -1 -1 -2 -1 -1 -2 1 -1 -3 1 2 -0 -0 4 1 3 -8 -1 0 0 0 -0 -1 1 2 1 -0 -1 -2 -1 -1 -3 -1
-1 -1 -0 1 1 0 1 0 1 0 -0 -1 -1 -1 0 -2 -3 -0 3 -3 -2 -1 -5 -1 1 1 3 -2 -2 -0 2 1 1 -1 -2 -2 -2 -1 -1 -0 -2 -2 -1 -2
-1 -1 1 -0 -0 -1 1 0 2 0 -0 -1 -2 -2 -1 -0 -1 -3 -1 -2 -1 -2 -2 -0 -0 4 -11 -4 -2 -1 -1 -3 -2 -0 -2 -2 -1 -1 -3 -3 -1 -2 -3 -2
-0 1 2 0 0 1 1 0 1 0 0 -1 -3 -1 -0 -1 -2 1 -0 -1 -2 -0 1 -1 -1 -2 -1 -1 -2 -1 -1 -1 -2 -3 -1 -1 -1 -2 -2 -2 -2 -2 -3 -2
1 1 1 -1 -0 -0 0 -0 1 -0 -0 -0 -1 -1 -1 -2 -2 -2 -2 -2 -1 -2 -2 -1 -2 -2 -2 -2 -0 1 -0 0 -2 -1 -3 -1 -1 -1 -2 -1 -1 -1 -3 -3
2 0 1 1 -1 -0 0 1 1 3 -1 -1 1 -2 -1 -2 -1 -1 -3 -3 -3 -2 -2 -0 -0 -2 -2 -1 -0 -1 -2 -1 -3 -2 -1 -1 -1 -2 -2 -1 -1 -1 -1 -1
Height
3056 3055 3053 3051 3051 3052 3050 3049 3051 3042 3042 3046 3045 3043 3041 3041 3039 3037 3037 3036 3036 3034 3033 3031 3030 3030 3030 3031 3031 3032 3034 3035 3036 3037 3037 3038 3040 3041 3045 3045 3047 3049 3050 3051
3048 3049 3047 3042 3042 3042 3041 3040 3038 3036 3031 3038 3037 3035 3034 3034 3032 3030 3029 3028 3027 3025 3023 3022 3021 3020 3020 3021 3022 3023 3023 3024 3026 3028 3030 3031 3032 3034 3035 3037 3038 3040 3041 3042
3042 3042 3041 3035 3032 3033 3033 3033 3033 3030 3030 3030 3028 3028 3027 3027 3025 3024 3023 3021 3020 3019 3018 3016 3015 3013 3012 3011 3012 3013 3014 3015 3017 3019 3020 3022 3024 3025 3027 3029 3030 3031 3033 3035
3041 3040 3042 3028 3027 3028 3029 3029 3028 3025 3025 3024 3022 3021 3021 3020 3019 3017 3017 3015 3014 3012 3011 3009 3008 3007 3005 3004 3003 3004 3005 3007 3009 3011 3013 3015 3016 3018 3020 3022 3023 3024 3025 3028
3039 3036 3028 3024 3024 3024 3022 3023 3021 3019 3018 3016 3015 3015 3016 3014 3012 3010 3009 3007 3005 3004 3002 3000 2999 2998 2997 2996 2995 2996 2998 3000 3003 3005 3008 3010 3010 3012 3013 3015 3017 3020 3021 3022
3035 3035 3029 3019 3020 3019 3017 3014 3014 3013 3012 3010 3008 3008 3009 3007 3005 3002 3001 2999 2996 2994 2993 2992 2991 2990 2989 2989 2989 2990 2993 2996 2998 3000 3001 3002 3004 3006 3009 3011 3013 3014 3014 3015
3029 3029 3019 3017 3015 3013 3014 3013 3008 3006 3004 3004 3004 3002 3000 2998 2996 2994 2991 2989 2987 2985 2984 2983 2982 2982 2982 2983 2984 2986 2988 2990 2992 2993 2993 2995 2998 3001 3003 3004 3005 3006 3006 3006
3023 3022 3016 3011 3009 3011 3007 3003 3002 3001 2999 2998 2996 2994 2991 2988 2986 2984 2981 2980 2978 2976 2975 2975 2975 2975 2976 2977 2979 2980 2982 2984 2984 2985 2988 2990 2992 2994 2996 2996 2997 2997 2997 2998
3019 3012 3007 3004 3003 3002 3001 2998 2997 2995 2993 2989 2987 2985 2983 2979 2978 2975 2972 2970 2969 2967 2967 2967 2968 2968 2970 2972 2973 2974 2975 2976 2978 2980 2982 2983 2985 2985 2986 2987 2988 2988 2990 2990
3006 3003 3000 2998 2997 2996 2994 2992 2989 2987 2984 2981 2979 2976 2973 2969 2967 2964 2962 2960 2958 2957 2957 2959 2960 2961 2963 2964 2965 2967 2969 2971 2972 2974 2974 2975 2976 2977 2978 2979 2980 2981 2982 2983
2995 2995 2992 2989 2988 2987 2986 2984 2982 2980 2977 2973 2970 2967 2962 2960 2957 2954 2952 2951 2949 2949 2950 2951 2953 2954 2956 2956 2958 2960 2962 2965 2966 2967 2967 2968 2969 2970 2971 2972 2974 2975 2975 2976
2985 2986 2983 2981 2980 2980 2978 2975 2973 2971 2968 2964 2961 2958 2955 2952 2949 2947 2944 2943 2943 2943 2943 2944 2946 2948 2949 2950 2951 2953 2956 2957 2959 2960 2960 2961 2962 2964 2964 2965 2966 2968 2968 2970
2977 2977 2974 2973 2970 2970 2968 2967 2964 2961 2958 2956 2953 2950 2948 2946 2943 2940 2938 2936 2936 2936 2936 2937 2939 2940 2941 2942 2944 2946 2948 2950 2951 2953 2953 2954 2955 2956 2956 2958 2959 2960 2961 2963
2969 2969 2967 2966 2964 2962 2959 2957 2955 2952 2950 2947 2945 2942 2941 2939 2937 2934 2932 2930 2929 2929 2929 2930 2931 2932 2932 2934 2935 2937 2939 2941 2942 2944 2945 2946 2947 2948 2949 2950 2952 2953 2954 2956
2961 2961 2959 2958 2956 2954 2951 2949 2946 2944 2942 2939 2937 2935 2933 2931 2930 2928 2926 2924 2922 2922 2922 2922 2923 2923 2924 2925 2926 2928 2929 2930 2932 2934 2935 2936 2937 2939 2940 2942 2943 2944 2945 2947
2955 2953 2951 2950 2947 2945 2943 2940 2937 2935 2933 2931 2929 2927 2924 2922 2920 2918 2917 2916 2916 2915 2914 2914 2914 2914 2915 2915 2916 2917 2918 2919 2921 2923 2924 2925 2927 2928 2929 2930 2932 2933 2935 2936
2948 2946 2945 2943 2940 2938 2935 2932 2930 2928 2925 2922 2920 2917 2915 2913 2911 2909 2908 2906 2905 2906 2905 2904 2903 2903 2904 2905 2905 2905 2906 2907 2908 2909 2911 2913 2914 2915 2916 2917 2918 2920 2922 2923
2940 2939 2938 2936 2934 2931 2927 2924 2921 2918 2916 2913 2910 2907 2905 2903 2901 2899 2898 2897 2896 2895 2894 2894 2892 2893 2893 2893 2893 2893 2893 2895 2896 2897 2898 2899 2900 2900 2901 2902 2904 2906 2907 2909
2932 2930 2928 2926 2923 2920 2917 2914 2910 2907 2904 2901 2899 2896 2894 2892 2890 2889 2887 2886 2884 2883 2883 2882 2881 2882 2882 2882 2881 2881 2882 2882 2883 2883 2884 2884 2884 2885 2886 2887 2888 2890 2891 2892
2924 2921 2918 2915 2912 2909 2906 2902 2898 2895 2892 2890 2887 2885 2882 2880 2878 2876 2874 2873 2873 2871 2870 2870 2871 2870 2869 2869 2869 2868 2869 2869 2870 2870 2870 2870 2871 2872 2872 2873 2873 2874 2875 2876
2915 2912 2908 2905 2901 2898 2895 2891 2888 2885 2882 2880 2877 2875 2873 2870 2868 2866 2865 2863 2861 2859 2857 2857 2857 2857 2856 2855 2855 2855 2855 2855 2855 2855 2856 2856 2856 2857 2858 2858 2858 2858 2859 2859
2906 2902 2899 2896 2892 2889 2885 2882 2879 2876 2874 2871 2868 2866 2864 2861 2859 2857 2854 2853 2852 2850 2848 2846 2846 2845 2844 2840 2843 2842 2841 2841 2841 2841 2841 2840 2841 2841 2841 2841 2841 2841 2842 2842
2896 2893 2890 2886 2883 2880 2877 2875 2872 2869 2866 2863 2861 2858 2856 2853 2851 2849 2848 2844 2843 2842 2839 2838 2837 2836 2834 2831 2830 2829 2829 2829 2828 2827 2826 2826 2826 2825 2826 2826 2825 2826 2826 2826
2888 2884 2881 2878 2875 2872 2870 2867 2865 2862 2859 2857 2854 2852 2849 2847 2844 2841 2840 2838 2836 2834 2833 2831 2829 2828 2822 2821 2820 2819 2818 2816 2815 2814 2813 2813 2812 2811 2811 2811 2811 2811 2811 2811
2879 2876 2873 2870 2868 2865 2862 2859 2857 2854 2852 2850 2848 2846 2843 2841 2840 2837 2835 2833 2830 2828 2827 2824 2822 2819 2817 2814 2811 2809 2807 2805 2804 2802 2801 2801 2800 2799 2798 2798 2797 2797 2797 2798
2872 2869 2866 2863 2860 2858 2855 2852 2850 2847 2845 2843 2841 2839 2837 2835 2833 2831 2829 2827 2824 2821 2819 2817 2814 2811 2808 2806 2803 2800 2798 2796 2794 2793 2791 2790 2789 2789 2788 2788 2787 2787 2786 2786
2865 2862 2859 2857 2854 2851 2848 2846 2843 2841 2838 2836 2835 2832 2831 2829 2827 2825 2822 2820 2818 2815 2812 2809 2806 2803 2800 2797 2794 2791 2788 2786 2784 2782 2781 2781 2780 2779 2779 2778 2778 2777 2777 2777